Weather History for KMNE - November, 2013

Change the Weather History Date:

Wednesday, November 6, 2013

  Actual Average (KBAD) Record (KBAD)
Temperature  
Mean Temperature 58 °F -  
Max Temperature 69 °F 65 °F 84 °F (2005)
Min Temperature 46 °F 46 °F 32 °F (2010)
Degree Days  
Heating Degree Days 8    
Growing Degree Days 8 (Base 50)    
Moisture  
Dew Point 59 °F    
Average Humidity 89    
Maximum Humidity 93    
Minimum Humidity 82    
Precipitation  
Precipitation 0.43 in - - ()
Sea Level Pressure  
Sea Level Pressure 30.12 in    
Wind  
Wind Speed 6 mph (WSW)    
Max Wind Speed 14 mph    
Max Gust Speed 23 mph    
Visibility 9 miles    
Events Rain    
Averages and records for this station are not official NWS values.
T = Trace of Precipitation, MM = Missing Value Source: NWS Daily Summary

Daily Weather History Graph

Daily Weather History Graph

Search for Another Location

Airport or City:

Trip Planner

Search our weather history database for the weather conditions in past years. The results will help you decide how hot, cold, wet, or windy it might be!

Date:

Astronomy

Nov. 06, 2013 Rise Set
Actual Time 6:35 AM CST 5:17 PM CST
Civil Twilight 6:09 AM CST 5:43 PM CST
Nautical Twilight 5:40 AM CST 6:12 PM CST
Astronomical Twilight 5:11 AM CST 6:41 PM CST
Moon 9:46 AM CST (11/6) 8:27 PM CST (11/6)
Length of Visible Light 11h 34m
Length of Day
10h 42m
Waxing Crescent, 14% of the Moon is Illuminated
Nov 6
Waxing Crescent
Nov 9
First Quarter
Nov 17
Full
Nov 25
Last Quarter
Dec 2
New

Hourly Weather History & Observations

Time (CST) Temp. Windchill Dew Point Humidity Pressure Visibility Wind Dir Wind Speed Gust Speed Precip Events Conditions
12:15 AM 67.3 °F - 61.5 °F 82% 30.07 in 10.0 mi SSE 5.8 mph - N/A   Mostly Cloudy
12:35 AM 67.1 °F - 61.7 °F 83% 30.07 in 10.0 mi SSE 10.4 mph 16.1 mph N/A   Mostly Cloudy
12:55 AM 67.1 °F - 61.7 °F 83% 30.07 in 10.0 mi SSE 6.9 mph - N/A   Overcast
1:15 AM 67.1 °F - 61.7 °F 83% 30.07 in 10.0 mi SSE 5.8 mph - N/A   Overcast
1:55 AM 66.6 °F - 61.7 °F 84% 30.06 in 10.0 mi SSE 5.8 mph - N/A   Overcast
2:15 AM 66.4 °F - 61.7 °F 85% 30.06 in 10.0 mi SSE 8.1 mph - N/A   Overcast
2:35 AM 66.2 °F - 61.7 °F 85% 30.06 in 10.0 mi SSE 5.8 mph - N/A   Overcast
2:55 AM 66.2 °F - 61.7 °F 85% 30.05 in 10.0 mi SE 8.1 mph - N/A   Overcast
3:15 AM 66.2 °F - 61.9 °F 86% 30.05 in 10.0 mi SE 5.8 mph - N/A   Overcast
3:35 AM 66.4 °F - 61.7 °F 85% 30.06 in 10.0 mi SSE 4.6 mph - N/A   Overcast
3:55 AM 66.6 °F - 62.1 °F 85% 30.06 in 10.0 mi SSE 4.6 mph - N/A   Overcast
4:15 AM 66.4 °F - 62.1 °F 86% 30.06 in 10.0 mi SE 5.8 mph - N/A   Overcast
4:35 AM 66.4 °F - 62.1 °F 86% 30.05 in 10.0 mi SE 9.2 mph - N/A Rain Light Rain
4:55 AM 66.4 °F - 62.2 °F 86% 30.04 in 10.0 mi SSE 9.2 mph - N/A   Overcast
5:15 AM 66.2 °F - 62.6 °F 88% 30.05 in 10.0 mi SSE 4.6 mph - N/A   Overcast
5:35 AM 66.2 °F - 62.8 °F 89% 30.05 in 10.0 mi SSE 5.8 mph - N/A   Overcast
5:55 AM 66.4 °F - 62.8 °F 88% 30.05 in 10.0 mi SSE 5.8 mph - N/A   Overcast
6:15 AM 66.6 °F - 63.0 °F 88% 30.05 in 10.0 mi SSE 4.6 mph - N/A   Overcast
6:35 AM 66.7 °F - 63.0 °F 88% 30.06 in 10.0 mi SSE 5.8 mph - N/A   Overcast
6:55 AM 67.1 °F - 63.1 °F 87% 30.06 in 10.0 mi SSE 5.8 mph - N/A   Overcast
7:15 AM 67.3 °F - 63.5 °F 88% 30.06 in 10.0 mi South 4.6 mph - N/A   Overcast
7:35 AM 67.5 °F - 63.5 °F 87% 30.07 in 10.0 mi South 6.9 mph - N/A   Overcast
7:55 AM 68.0 °F - 63.7 °F 86% 30.07 in 10.0 mi South 3.5 mph - N/A   Overcast
8:15 AM 68.2 °F - 64.2 °F 87% 30.08 in 7.0 mi Calm Calm - N/A   Overcast
8:35 AM 68.0 °F - 64.4 °F 88% 30.09 in 5.0 mi South 3.5 mph - N/A Rain Rain
8:55 AM 67.6 °F - 64.8 °F 90% 30.09 in 4.0 mi Calm Calm - 0.04 in Rain Light Rain
9:15 AM 67.6 °F - 64.9 °F 91% 30.09 in 3.0 mi South 4.6 mph - 0.01 in Rain Rain
9:35 AM 68.0 °F - 65.3 °F 91% 30.09 in 3.0 mi South 6.9 mph - 0.06 in Rain Rain
9:55 AM 68.0 °F - 65.3 °F 91% 30.10 in 2.5 mi West 4.6 mph - 0.12 in Rain Heavy Rain
10:15 AM 68.0 °F - 65.5 °F 92% 30.09 in 3.0 mi Calm Calm - 0.04 in Rain Rain
10:35 AM 68.0 °F - 65.5 °F 92% 30.09 in 5.0 mi Calm Calm - 0.05 in Rain Light Rain
10:55 AM 68.2 °F - 66.2 °F 93% 30.09 in 7.0 mi South 3.5 mph - 0.05 in   Overcast
11:15 AM 68.5 °F - 66.4 °F 93% 30.09 in 7.0 mi SSE 4.6 mph - N/A Rain Light Rain
11:35 AM 69.1 °F - 66.9 °F 93% 30.08 in 5.0 mi South 3.5 mph - N/A   Drizzle
11:55 AM 69.1 °F - 66.7 °F 92% 30.08 in 2.5 mi South 3.5 mph - 0.05 in Rain Rain
12:15 PM 69.1 °F - 67.1 °F 93% 30.06 in 7.0 mi South 3.5 mph - 0.02 in Rain Light Rain
12:35 PM 69.6 °F - 67.3 °F 92% 30.06 in 7.0 mi SSW 4.6 mph - 0.03 in Rain Light Rain
12:55 PM 69.4 °F - 67.1 °F 92% 30.06 in 4.0 mi WSW 3.5 mph - 0.05 in Rain Rain
1:15 PM 69.4 °F - 67.3 °F 93% 30.06 in 4.0 mi WSW 6.9 mph - 0.05 in Rain Rain
1:35 PM 68.9 °F - 66.4 °F 92% 30.06 in 7.0 mi WSW 5.8 mph - 0.06 in Rain Light Rain
1:55 PM 68.0 °F - 65.5 °F 92% 30.06 in 7.0 mi NW 9.2 mph - 0.12 in Rain Light Rain
2:15 PM 68.0 °F - 65.5 °F 92% 30.07 in 10.0 mi WNW 4.6 mph - N/A   Light Drizzle
2:35 PM 68.0 °F - 65.5 °F 92% 30.07 in 10.0 mi NW 5.8 mph - N/A   Overcast
2:55 PM 62.2 °F - 59.9 °F 92% 30.09 in 10.0 mi NW 11.5 mph 23.0 mph N/A   Overcast
3:15 PM 61.2 °F - 59.2 °F 93% 30.10 in 10.0 mi NW 6.9 mph - N/A   Overcast
3:35 PM 60.1 °F - 58.1 °F 93% 30.11 in 10.0 mi NNW 11.5 mph 17.3 mph N/A   Overcast
3:55 PM 59.5 °F - 57.4 °F 93% 30.12 in 10.0 mi WNW 10.4 mph 18.4 mph N/A   Overcast
4:15 PM 58.8 °F - 56.7 °F 93% 30.12 in 10.0 mi NNW 11.5 mph 17.3 mph N/A   Overcast
4:35 PM 58.1 °F - 55.8 °F 92% 30.13 in 10.0 mi NW 13.8 mph 19.6 mph N/A   Overcast
4:55 PM 57.4 °F - 55.2 °F 92% 30.15 in 10.0 mi NW 13.8 mph 19.6 mph N/A   Overcast
5:15 PM 57.2 °F - 54.5 °F 91% 30.16 in 10.0 mi NW 9.2 mph - N/A   Overcast
5:35 PM 56.1 °F - 53.6 °F 91% 30.17 in 10.0 mi WNW 11.5 mph 16.1 mph N/A   Overcast
5:55 PM 55.4 °F - 52.3 °F 89% 30.18 in 10.0 mi NW 12.7 mph 20.7 mph N/A   Overcast
6:15 PM 54.7 °F - 51.8 °F 90% 30.19 in 10.0 mi NW 9.2 mph - N/A   Overcast
6:35 PM 54.0 °F - 50.9 °F 89% 30.20 in 10.0 mi NW 5.8 mph - N/A   Scattered Clouds
6:55 PM 53.6 °F - 50.5 °F 89% 30.21 in 10.0 mi NW 5.8 mph - N/A   Clear
7:15 PM 52.9 °F - 50.4 °F 91% 30.21 in 10.0 mi NW 5.8 mph - N/A   Scattered Clouds
7:35 PM 52.7 °F - 50.0 °F 91% 30.22 in 10.0 mi NW 5.8 mph - N/A   Mostly Cloudy
7:55 PM 52.7 °F - 49.6 °F 89% 30.22 in 10.0 mi NW 5.8 mph - N/A   Overcast
8:15 PM 52.2 °F - 48.9 °F 89% 30.24 in 10.0 mi NW 5.8 mph - N/A   Overcast
8:35 PM 51.6 °F - 48.4 °F 89% 30.25 in 10.0 mi NW 4.6 mph - N/A   Overcast
8:55 PM 51.3 °F - 48.0 °F 89% 30.26 in 10.0 mi NW 6.9 mph - N/A   Overcast
9:15 PM 51.3 °F - 47.7 °F 87% 30.27 in 10.0 mi NW 6.9 mph - N/A   Overcast
9:35 PM 51.1 °F - 47.3 °F 87% 30.27 in 10.0 mi NW 6.9 mph - N/A   Overcast
9:55 PM 50.4 °F - 46.4 °F 86% 30.27 in 10.0 mi NNW 6.9 mph - N/A   Overcast
10:15 PM 50.0 °F - 45.5 °F 85% 30.29 in 10.0 mi NNW 10.4 mph - N/A   Overcast
10:35 PM 49.3 °F - 44.6 °F 84% 30.29 in 10.0 mi NNW 9.2 mph 16.1 mph N/A   Mostly Cloudy
10:55 PM 48.4 °F - 44.2 °F 86% 30.30 in 10.0 mi North 9.2 mph - N/A   Mostly Cloudy
11:15 PM 47.3 °F - 43.9 °F 88% 30.30 in 10.0 mi North 8.1 mph - N/A   Scattered Clouds
11:35 PM 46.6 °F - 43.3 °F 88% 30.31 in 10.0 mi North 8.1 mph - N/A   Clear
11:55 PM 46.0 °F 42.5 °F 43.0 °F 89% 30.31 in 10.0 mi North 6.9 mph - N/A   Clear